Location: Unspecified
(0.0000°N, 0.0000°E)
Time: 03:14:46
(UTC+01:00)

ARIANE DEB (SPELDA) - Visible Passes

Search period start: 19 December 2014 00:00
Search period end: 29 December 2014 00:00
Orbit: 340 x 33242 km, 3.3° (Epoch: 17 December)

Date Brightness Start Highest point End Pass type
(mag) Time Alt. Az. Time Alt. Az. Time Alt. Az.
19 Dec 6.7 06:22:08 10° W 15:12:54 85° N 15:29:29 10° E visible
20 Dec 6.6 01:49:02 48° E 01:49:02 48° E 10:30:57 10° E visible
20 Dec 3.7 20:52:24 10° W 20:54:57 31° WSW 20:54:57 31° WSW visible
22 Dec 6.3 02:34:04 74° ESE 02:34:04 74° ESE 11:24:35 10° E visible
24 Dec 6.2 03:19:00 73° WSW 03:22:34 85° S 12:15:26 10° E visible
26 Dec 6.5 04:03:50 48° W 04:16:33 88° S 13:04:38 10° E visible
27 Dec 11.5 05:57:07 10° E 06:25:20 11° E 06:49:27 10° E visible
28 Dec 7.0 04:48:35 29° W 05:17:39 90° S 13:52:43 10° E visible
